,,Stat5,,Stat1,,Stat2,,Stat3,,Stat4,,Wind1,,Wind1,
time,status,PA1M_AVG,status,PR1M_SUM,status,RH1M_AVG,status,SR1M_AVG,status,TA1M_AVG,status,W1dAve1m,status,W1sAve1m,
2000-07-29, 00:00:00,VALID,917.863,VALID,0,VALID,99.9929,VALID,0.0169808,VALID,19.1242,VALID,111,VALID,0,
2000-07-29, 00:01:00,VALID,917.863,VALID,0,VALID,99.9931,VALID,0.0169808,VALID,19.1374,VALID,109,VALID,0,
2000-07-29, 00:02:00,VALID,917.856,VALID,0,VALID,99.9847,VALID,0,VALID,19.1369,VALID,93,VALID,0,
2000-07-29, 00:03:00,VALID,917.853,VALID,0,VALID,99.9771,VALID,0,VALID,19.1307,VALID,93,VALID,0,
2000-07-29, 00:04:00,VALID,917.85,VALID,0,VALID,99.9697,VALID,0.0169808,VALID,19.0882,VALID,93,VALID,0,
2000-07-29, 00:05:00,VALID,917.851,VALID,0,VALID,99.9748,VALID,0.0339617,VALID,19.076,VALID,91,VALID,0,
2000-07-29, 00:06:00,VALID,917.858,VALID,0,VALID,99.9799,VALID,0.0169808,VALID,19.072,VALID,95,VALID,0,
2000-07-29, 00:07:00,VALID,917.855,VALID,0,VALID,99.986,VALID,0.0169808,VALID,19.1016,VALID,93,VALID,0,
2000-07-29, 00:08:00,VALID,917.863,VALID,0,VALID,99.9825,VALID,0.0169808,VALID,19.0954,VALID,91,VALID,0,
2000-07-29, 00:09:00,VALID,917.864,VALID,0,VALID,99.9898,VALID,0,VALID,19.115,VALID,92,VALID,0,
2000-07-29, 00:10:00,VALID,917.872,VALID,0,VALID,99.9886,VALID,0,VALID,19.1281,VALID,96,VALID,0,
2000-07-29, 00:11:00,VALID,917.873,VALID,0,VALID,99.9944,VALID,0,VALID,19.1309,VALID,96,VALID,0,
2000-07-29, 00:12:00,VALID,917.86,VALID,0,VALID,99.9944,VALID,-0.0169808,VALID,19.147,VALID,96,VALID,0,
2000-07-29, 00:13:00,VALID,917.857,VALID,0,VALID,99.9934,VALID,-0.0169808,VALID,19.1496,VALID,96,VALID,0,
2000-07-29, 00:14:00,VALID,917.84,VALID,0,VALID,99.985,VALID,0,VALID,19.147,VALID,96,VALID,0,
2000-07-29, 00:15:00,VALID,917.815,VALID,0,VALID,99.9924,VALID,0,VALID,19.1401,VALID,96,VALID,0,
2000-07-29, 00:16:00,VALID,917.78,VALID,0,VALID,99.9774,VALID,0,VALID,19.1498,VALID,96,VALID,0,
2000-07-29, 00:17:00,VALID,917.759,VALID,0,VALID,99.986,VALID,0,VALID,19.1563,VALID,96,VALID,0,
2000-07-29, 00:18:00,VALID,917.731,VALID,0,VALID,99.9847,VALID,0.0169808,VALID,19.1692,VALID,96,VALID,0,
2000-07-29, 00:19:00,VALID,917.707,VALID,0,VALID,99.987,VALID,0,VALID,19.1689,VALID,96,VALID,0,
2000-07-29, 00:20:00,VALID,917.695,VALID,0,VALID,99.9873,VALID,-0.0169808,VALID,19.1828,VALID,98,VALID,0,
2000-07-29, 00:21:00,VALID,917.693,VALID,0,VALID,99.998,VALID,0,VALID,19.1913,VALID,100,VALID,0,
2000-07-29, 00:22:00,VALID,917.675,VALID,0,VALID,99.998,VALID,-0.0509425,VALID,19.2142,VALID,107,VALID,0,
2000-07-29, 00:23:00,VALID,917.673,VALID,0,VALID,99.9954,VALID,-0.0169808,VALID,19.2176,VALID,106,VALID,0,
2000-07-29, 00:24:00,VALID,917.659,VALID,0,VALID,99.9822,VALID,0,VALID,19.1982,VALID,95,VALID,0,
2000-07-29, 00:25:00,VALID,917.645,VALID,0,VALID,99.9924,VALID,0,VALID,19.202,VALID,80,VALID,0,
2000-07-29, 00:26:00,VALID,917.623,VALID,0,VALID,99.9822,VALID,0,VALID,19.1851,VALID,98,VALID,0,
2000-07-29, 00:27:00,VALID,917.612,VALID,0,VALID,99.9898,VALID,0,VALID,19.1982,VALID,107,VALID,0,
2000-07-29, 00:28:00,VALID,917.607,VALID,0,VALID,99.9969,VALID,0,VALID,19.198,VALID,108,VALID,0,
2000-07-29, 00:29:00,VALID,917.599,VALID,0,VALID,99.9873,VALID,-0.0169808,VALID,19.1915,VALID,100,VALID,0,
2000-07-29, 00:30:00,VALID,917.604,VALID,0,VALID,99.9967,VALID,0,VALID,19.1853,VALID,96,VALID,0,
2000-07-29, 00:31:00,VALID,917.604,VALID,0,VALID,99.9812,VALID,0,VALID,19.1819,VALID,96,VALID,0,
2000-07-29, 00:32:00,VALID,917.602,VALID,0,VALID,99.9898,VALID,0,VALID,19.1692,VALID,96,VALID,0,
2000-07-29, 00:33:00,VALID,917.621,VALID,0,VALID,99.9774,VALID,0,VALID,19.1458,VALID,96,VALID,0,
2000-07-29, 00:34:00,VALID,917.621,VALID,0,VALID,99.9812,VALID,0,VALID,19.1401,VALID,96,VALID,0,
2000-07-29, 00:35:00,VALID,917.636,VALID,0,VALID,99.9896,VALID,-0.0169808,VALID,19.124,VALID,99,VALID,0,
2000-07-29, 00:36:00,VALID,917.644,VALID,0,VALID,99.9647,VALID,0,VALID,19.1309,VALID,162,VALID,0,
2000-07-29, 00:37:00,VALID,917.649,VALID,0,VALID,99.9634,VALID,0,VALID,19.1078,VALID,162,VALID,0,
2000-07-29, 00:38:00,VALID,917.662,VALID,0,VALID,99.9786,VALID,0.0169808,VALID,19.1076,VALID,157,VALID,0,
2000-07-29, 00:39:00,VALID,917.676,VALID,0,VALID,99.9837,VALID,0.0169808,VALID,19.1011,VALID,118,VALID,0,
2000-07-29, 00:40:00,VALID,917.674,VALID,0,VALID,99.9799,VALID,-0.0169808,VALID,19.1108,VALID,102,VALID,0,
2000-07-29, 00:41:00,VALID,917.68,VALID,0,VALID,99.9685,VALID,0,VALID,19.1043,VALID,120,VALID,0,
2000-07-29, 00:42:00,VALID,917.674,VALID,0,VALID,99.9672,VALID,-0.0169808,VALID,19.078,VALID,121,VALID,0,
2000-07-29, 00:43:00,VALID,917.678,VALID,0,VALID,99.9481,VALID,0,VALID,19.0591,VALID,122,VALID,0,
2000-07-29, 00:44:00,VALID,917.687,VALID,0,VALID,99.9405,VALID,-0.0509425,VALID,19.0464,VALID,139,VALID,0,
2000-07-29, 00:45:00,VALID,917.7,VALID,0,VALID,99.9125,VALID,0,VALID,19.0139,VALID,164,VALID,0,
2000-07-29, 00:46:00,VALID,917.68,VALID,0,VALID,99.9112,VALID,0,VALID,18.9784,VALID,175,VALID,0,
2000-07-29, 00:47:00,VALID,917.689,VALID,0,VALID,99.943,VALID,0,VALID,18.9786,VALID,183,VALID,0,
2000-07-29, 00:48:00,VALID,917.685,VALID,0,VALID,99.9685,VALID,0,VALID,18.9952,VALID,182,VALID,0,
2000-07-29, 00:49:00,VALID,917.664,VALID,0,VALID,99.9596,VALID,-0.0339617,VALID,18.9781,VALID,182,VALID,0,
2000-07-29, 00:50:00,VALID,917.631,VALID,0,VALID,99.9532,VALID,-0.0169808,VALID,18.9788,VALID,182,VALID,0,
2000-07-29, 00:51:00,VALID,917.625,VALID,0,VALID,99.9583,VALID,-0.0169808,VALID,18.9555,VALID,182,VALID,0,
2000-07-29, 00:52:00,VALID,917.587,VALID,0,VALID,99.9647,VALID,-0.0339617,VALID,18.9664,VALID,182,VALID,0,
2000-07-29, 00:53:00,VALID,917.568,VALID,0,VALID,99.9863,VALID,-0.0169808,VALID,18.9625,VALID,182,VALID,0,
2000-07-29, 00:54:00,VALID,917.557,VALID,0,VALID,99.9936,VALID,-0.0169808,VALID,18.9565,VALID,182,VALID,0,
2000-07-29, 00:55:00,VALID,917.535,VALID,0,VALID,99.9784,VALID,-0.0169808,VALID,18.9394,VALID,182,VALID,0,
2000-07-29, 00:56:00,VALID,917.539,VALID,0,VALID,99.9896,VALID,0,VALID,18.9366,VALID,213,VALID,0,
2000-07-29, 00:57:00,VALID,917.536,VALID,0,VALID,99.9911,VALID,0,VALID,18.9465,VALID,268,VALID,0,
2000-07-29, 00:58:00,VALID,917.536,VALID,0,VALID,99.9957,VALID,0,VALID,18.9398,VALID,268,VALID,0,
2000-07-29, 00:59:00,VALID,917.525,VALID,0,VALID,99.9908,VALID,0,VALID,18.9428,VALID,268,VALID,0,
2000-07-29, 01:00:00,VALID,917.527,VALID,0,VALID,99.998,VALID,0,VALID,18.9493,VALID,268,VALID,0,
2000-07-29, 01:01:00,VALID,917.536,VALID,0,VALID,99.9967,VALID,0,VALID,18.9562,VALID,272,VALID,0,
2000-07-29, 01:02:00,VALID,917.535,VALID,0,VALID,99.9954,VALID,0,VALID,18.9622,VALID,299,VALID,0,
2000-07-29, 01:03:00,VALID,917.528,VALID,0,VALID,100,VALID,0,VALID,18.9657,VALID,346,VALID,0,
2000-07-29, 01:04:00,VALID,917.523,VALID,0,VALID,99.9977,VALID,0,VALID,18.9622,VALID,346,VALID,0,
2000-07-29, 01:05:00,VALID,917.529,VALID,0,VALID,99.9969,VALID,-0.0169808,VALID,18.9724,VALID,346,VALID,0,
2000-07-29, 01:06:00,VALID,917.521,VALID,0,VALID,99.9967,VALID,-0.0169808,VALID,18.9821,VALID,347,VALID,0,
2000-07-29, 01:07:00,VALID,917.532,VALID,0,VALID,100,VALID,0,VALID,18.9985,VALID,348,VALID,0,
2000-07-29, 01:08:00,VALID,917.522,VALID,0,VALID,100,VALID,0,VALID,18.9918,VALID,349,VALID,0,
2000-07-29, 01:09:00,VALID,917.5,VALID,0,VALID,99.999,VALID,0,VALID,18.9888,VALID,349,VALID,0,
2000-07-29, 01:10:00,VALID,917.491,VALID,0,VALID,99.999,VALID,-0.0169808,VALID,18.9952,VALID,349,VALID,0,
2000-07-29, 01:11:00,VALID,917.471,VALID,0,VALID,100,VALID,-0.0339617,VALID,18.9881,VALID,349,VALID,0,
2000-07-29, 01:12:00,VALID,917.442,VALID,0,VALID,99.9967,VALID,-0.0509425,VALID,18.9791,VALID,349,VALID,0,
2000-07-29, 01:13:00,VALID,917.422,VALID,0,VALID,99.9786,VALID,-0.0509425,VALID,18.9373,VALID,349,VALID,0,
2000-07-29, 01:14:00,VALID,917.404,VALID,0,VALID,99.9822,VALID,-0.0509425,VALID,18.9309,VALID,349,VALID,0,
2000-07-29, 01:15:00,VALID,917.388,VALID,0,VALID,99.9797,VALID,-0.0339617,VALID,18.9378,VALID,349,VALID,0,
2000-07-29, 01:16:00,VALID,917.382,VALID,0,VALID,99.9886,VALID,-0.0509425,VALID,18.9242,VALID,350,VALID,0,
2000-07-29, 01:17:00,VALID,917.368,VALID,0,VALID,99.986,VALID,-0.0169808,VALID,18.941,VALID,350,VALID,0,
2000-07-29, 01:18:00,VALID,917.347,VALID,0,VALID,99.9809,VALID,-0.0679233,VALID,18.9281,VALID,350,VALID,0,
2000-07-29, 01:19:00,VALID,917.331,VALID,0,VALID,99.9825,VALID,-0.0679233,VALID,18.9053,VALID,350,VALID,0,
2000-07-29, 01:20:00,VALID,917.311,VALID,0,VALID,99.9812,VALID,-0.0339617,VALID,18.915,VALID,350,VALID,0,
2000-07-29, 01:21:00,VALID,917.303,VALID,0,VALID,99.9896,VALID,-0.0339617,VALID,18.9112,VALID,350,VALID,0,
2000-07-29, 01:22:00,VALID,917.275,VALID,0,VALID,99.9863,VALID,0,VALID,18.9408,VALID,350,VALID,0,
2000-07-29, 01:23:00,VALID,917.251,VALID,0,VALID,99.9758,VALID,-0.0509425,VALID,18.9373,VALID,350,VALID,0,
2000-07-29, 01:24:00,VALID,917.235,VALID,0,VALID,99.9748,VALID,-0.0849042,VALID,18.9083,VALID,350,VALID,0,
2000-07-29, 01:25:00,VALID,917.196,VALID,0,VALID,99.9723,VALID,-0.0849042,VALID,18.9018,VALID,350,VALID,0,
2000-07-29, 01:26:00,VALID,917.163,VALID,0,VALID,99.9835,VALID,-0.0679233,VALID,18.9085,VALID,350,VALID,0,
2000-07-29, 01:27:00,VALID,917.13,VALID,0,VALID,99.9723,VALID,0,VALID,18.8949,VALID,350,VALID,0,
2000-07-29, 01:28:00,VALID,917.11,VALID,0,VALID,99.9443,VALID,-0.0849042,VALID,18.8605,VALID,25,VALID,0,
2000-07-29, 01:29:00,VALID,917.091,VALID,0,VALID,99.9278,VALID,-0.0509425,VALID,18.8247,VALID,100,VALID,0,
2000-07-29, 01:30:00,VALID,917.074,VALID,0,VALID,99.9214,VALID,-0.0339617,VALID,18.8118,VALID,102,VALID,0.46361,
2000-07-29, 01:31:00,VALID,917.063,VALID,0,VALID,99.9112,VALID,-0.0339617,VALID,18.7731,VALID,106,VALID,0.952303,
2000-07-29, 01:32:00,VALID,917.053,VALID,0,VALID,99.9087,VALID,-0.0339617,VALID,18.7433,VALID,117,VALID,0.67567,
2000-07-29, 01:33:00,VALID,917.061,VALID,0,VALID,99.9151,VALID,-0.0169808,VALID,18.7574,VALID,144,VALID,0.454018,
2000-07-29, 01:34:00,VALID,917.047,VALID,0,VALID,99.9201,VALID,-0.0169808,VALID,18.7472,VALID,156,VALID,0.51011,
2000-07-29, 01:35:00,VALID,917.048,VALID,0,VALID,99.9151,VALID,-0.0339617,VALID,18.7276,VALID,162,VALID,0.445101,
2000-07-29, 01:36:00,VALID,917.037,VALID,0,VALID,99.9112,VALID,-0.0169808,VALID,18.6983,VALID,163,VALID,0.411377,
2000-07-29, 01:37:00,VALID,917.017,VALID,0,VALID,99.9176,VALID,0,VALID,18.6951,VALID,154,VALID,0.148438,
2000-07-29, 01:38:00,VALID,916.991,VALID,0,VALID,99.9252,VALID,-0.0509425,VALID,18.7048,VALID,134,VALID,0.0435268,
2000-07-29, 01:39:00,VALID,916.967,VALID,0,VALID,99.9405,VALID,-0.0849042,VALID,18.7115,VALID,113,VALID,0,
2000-07-29, 01:40:00,VALID,916.941,VALID,0,VALID,99.9329,VALID,-0.0849042,VALID,18.7115,VALID,121,VALID,0,
2000-07-29, 01:41:00,VALID,916.926,VALID,0,VALID,99.9341,VALID,-0.0679233,VALID,18.7117,VALID,124,VALID,0,
2000-07-29, 01:42:00,VALID,916.901,VALID,0,VALID,99.9303,VALID,-0.0509425,VALID,18.7246,VALID,128,VALID,0,
2000-07-29, 01:43:00,VALID,916.9,VALID,0,VALID,99.9189,VALID,-0.0509425,VALID,18.7211,VALID,133,VALID,0,
2000-07-29, 01:44:00,VALID,916.898,VALID,0,VALID,99.9062,VALID,-0.0509425,VALID,18.7045,VALID,195,VALID,0,
2000-07-29, 01:45:00,VALID,916.913,VALID,0,VALID,99.9074,VALID,-0.0169808,VALID,18.7145,VALID,225,VALID,0.105785,
2000-07-29, 01:46:00,VALID,916.925,VALID,0,VALID,99.9011,VALID,-0.0849042,VALID,18.7278,VALID,224,VALID,0.623851,
2000-07-29, 01:47:00,VALID,916.922,VALID,0,VALID,99.9214,VALID,-0.0339617,VALID,18.7179,VALID,221,VALID,0.56609,
2000-07-29, 01:48:00,VALID,916.946,VALID,0,VALID,99.9252,VALID,-0.0339617,VALID,18.7246,VALID,213,VALID,0.508789,
2000-07-29, 01:49:00,VALID,916.965,VALID,0,VALID,99.9151,VALID,-0.0339617,VALID,18.7246,VALID,208,VALID,0.00580929,
2000-07-29, 01:50:00,VALID,916.975,VALID,0,VALID,99.9062,VALID,-0.0849042,VALID,18.7117,VALID,210,VALID,0,
2000-07-29, 01:51:00,VALID,916.976,VALID,0,VALID,99.9278,VALID,-0.0509425,VALID,18.7018,VALID,220,VALID,0,
2000-07-29, 01:52:00,VALID,916.967,VALID,0,VALID,99.9418,VALID,-0.0509425,VALID,18.705,VALID,221,VALID,0,
2000-07-29, 01:53:00,VALID,916.959,VALID,0,VALID,99.9545,VALID,-0.0509425,VALID,18.6891,VALID,227,VALID,0,
2000-07-29, 01:54:00,VALID,916.941,VALID,0,VALID,99.9557,VALID,-0.0849042,VALID,18.6923,VALID,227,VALID,0,
2000-07-29, 01:55:00,VALID,916.914,VALID,0,VALID,99.9545,VALID,-0.0509425,VALID,18.6859,VALID,222,VALID,0,
2000-07-29, 01:56:00,VALID,916.899,VALID,0,VALID,99.9634,VALID,-0.0849042,VALID,18.6794,VALID,235,VALID,0,
2000-07-29, 01:57:00,VALID,916.887,VALID,0,VALID,99.9735,VALID,-0.0849042,VALID,18.6729,VALID,231,VALID,0.0491976,
2000-07-29, 01:58:00,VALID,916.889,VALID,0,VALID,99.9873,VALID,-0.0679233,VALID,18.6764,VALID,219,VALID,0.324908,
2000-07-29, 01:59:00,VALID,916.887,VALID,0,VALID,99.971,VALID,-0.0679233,VALID,18.6699,VALID,221,VALID,0.95038,
2000-07-29, 02:00:00,VALID,916.896,VALID,0,VALID,99.9735,VALID,-0.0679233,VALID,18.6568,VALID,218,VALID,1.01929,
2000-07-29, 02:01:00,VALID,916.915,VALID,0,VALID,99.9809,VALID,-0.0509425,VALID,18.6372,VALID,221,VALID,0.876803,
2000-07-29, 02:02:00,VALID,916.903,VALID,0,VALID,99.9934,VALID,-0.0849042,VALID,18.6406,VALID,216,VALID,0.903348,
2000-07-29, 02:03:00,VALID,916.9,VALID,0,VALID,100,VALID,-0.0679233,VALID,18.6506,VALID,211,VALID,0.797297,
2000-07-29, 02:04:00,VALID,916.906,VALID,0,VALID,100,VALID,-0.0169808,VALID,18.6727,VALID,203,VALID,0.371783,
2000-07-29, 02:05:00,VALID,916.892,VALID,0,VALID,100,VALID,-0.0339617,VALID,18.6727,VALID,195,VALID,0.0834037,
2000-07-29, 02:06:00,VALID,916.888,VALID,0,VALID,100,VALID,-0.0339617,VALID,18.6859,VALID,189,VALID,0.0559211,
2000-07-29, 02:07:00,VALID,916.877,VALID,0,VALID,100,VALID,-0.0169808,VALID,18.6861,VALID,189,VALID,0.015625,
2000-07-29, 02:08:00,VALID,916.878,VALID,0,VALID,100,VALID,-0.101885,VALID,18.696,VALID,189,VALID,0,
2000-07-29, 02:09:00,VALID,916.879,VALID,0,VALID,100,VALID,-0.0849042,VALID,18.6953,VALID,189,VALID,0,
2000-07-29, 02:10:00,VALID,916.871,VALID,0,VALID,100,VALID,-0.0169808,VALID,18.7122,VALID,189,VALID,0,
2000-07-29, 02:11:00,VALID,916.868,VALID,0,VALID,100,VALID,-0.0509425,VALID,18.7085,VALID,189,VALID,0,
2000-07-29, 02:12:00,VALID,916.854,VALID,0,VALID,100,VALID,-0.0339617,VALID,18.7048,VALID,189,VALID,0,
2000-07-29, 02:13:00,VALID,916.851,VALID,0,VALID,100,VALID,-0.0169808,VALID,18.6953,VALID,189,VALID,0,
2000-07-29, 02:14:00,VALID,916.861,VALID,0,VALID,100,VALID,0,VALID,18.6923,VALID,189,VALID,0,
2000-07-29, 02:15:00,VALID,916.86,VALID,0,VALID,100,VALID,-0.0339617,VALID,18.6789,VALID,190,VALID,0,
2000-07-29, 02:16:00,VALID,916.879,VALID,0,VALID,100,VALID,0,VALID,18.6861,VALID,217,VALID,0,
2000-07-29, 02:17:00,VALID,916.89,VALID,0,VALID,100,VALID,-0.0509425,VALID,18.6796,VALID,239,VALID,0.0244932,
2000-07-29, 02:18:00,VALID,916.905,VALID,0,VALID,100,VALID,-0.0509425,VALID,18.6796,VALID,257,VALID,0,
2000-07-29, 02:19:00,VALID,916.935,VALID,0,VALID,99.9977,VALID,-0.0339617,VALID,18.6926,VALID,257,VALID,0,
2000-07-29, 02:20:00,VALID,916.947,VALID,0,VALID,100,VALID,-0.0509425,VALID,18.6762,VALID,257,VALID,0,
2000-07-29, 02:21:00,VALID,916.964,VALID,0,VALID,100,VALID,-0.0509425,VALID,18.6829,VALID,257,VALID,0,
2000-07-29, 02:22:00,VALID,916.961,VALID,0,VALID,100,VALID,-0.0849042,VALID,18.6799,VALID,257,VALID,0,
2000-07-29, 02:23:00,VALID,916.962,VALID,0,VALID,100,VALID,-0.0849042,VALID,18.6863,VALID,257,VALID,0,
2000-07-29, 02:24:00,VALID,916.974,VALID,0,VALID,99.999,VALID,-0.0679233,VALID,18.6868,VALID,257,VALID,0,
2000-07-29, 02:25:00,VALID,916.968,VALID,0,VALID,100,VALID,-0.0849042,VALID,18.6739,VALID,255,VALID,0,
2000-07-29, 02:26:00,VALID,916.978,VALID,0,VALID,99.999,VALID,-0.0679233,VALID,18.664,VALID,252,VALID,0,
2000-07-29, 02:27:00,VALID,916.98,VALID,0,VALID,99.999,VALID,-0.0679233,VALID,18.6503,VALID,232,VALID,0,
2000-07-29, 02:28:00,VALID,916.993,VALID,0,VALID,100,VALID,-0.0339617,VALID,18.6536,VALID,220,VALID,0.0491728,
2000-07-29, 02:29:00,VALID,916.989,VALID,0,VALID,100,VALID,-0.0509425,VALID,18.66,VALID,207,VALID,0.412162,
2000-07-29, 02:30:00,VALID,916.987,VALID,0,VALID,100,VALID,-0.0679233,VALID,18.6667,VALID,207,VALID,0.375,
2000-07-29, 02:31:00,VALID,916.98,VALID,0,VALID,100,VALID,-0.0679233,VALID,18.6766,VALID,198,VALID,0.187706,
2000-07-29, 02:32:00,VALID,916.975,VALID,0,VALID,100,VALID,0,VALID,18.6992,VALID,195,VALID,0.292188,
2000-07-29, 02:33:00,VALID,916.963,VALID,0,VALID,100,VALID,-0.0509425,VALID,18.7055,VALID,194,VALID,0.320735,
2000-07-29, 02:34:00,VALID,916.936,VALID,0,VALID,100,VALID,-0.0339617,VALID,18.7149,VALID,207,VALID,0,
2000-07-29, 02:35:00,VALID,916.903,VALID,0,VALID,100,VALID,-0.0339617,VALID,18.7345,VALID,221,VALID,0,
2000-07-29, 02:36:00,VALID,916.87,VALID,0,VALID,100,VALID,-0.0339617,VALID,18.7211,VALID,220,VALID,0,
2000-07-29, 02:37:00,VALID,916.868,VALID,0,VALID,100,VALID,-0.0509425,VALID,18.741,VALID,219,VALID,0,
2000-07-29, 02:38:00,VALID,916.845,VALID,0,VALID,100,VALID,-0.0509425,VALID,18.7405,VALID,219,VALID,0,
2000-07-29, 02:39:00,VALID,916.838,VALID,0,VALID,100,VALID,-0.0339617,VALID,18.7572,VALID,220,VALID,0,
2000-07-29, 02:40:00,VALID,916.831,VALID,0,VALID,100,VALID,-0.0339617,VALID,18.7668,VALID,220,VALID,0,
2000-07-29, 02:41:00,VALID,916.834,VALID,0,VALID,100,VALID,-0.0339617,VALID,18.7698,VALID,220,VALID,0,
2000-07-29, 02:42:00,VALID,916.833,VALID,0,VALID,100,VALID,0,VALID,18.7698,VALID,220,VALID,0,
2000-07-29, 02:43:00,VALID,916.83,VALID,0,VALID,100,VALID,-0.0169808,VALID,18.7763,VALID,220,VALID,0,
2000-07-29, 02:44:00,VALID,916.824,VALID,0,VALID,100,VALID,0,VALID,18.7798,VALID,220,VALID,0,
2000-07-29, 02:45:00,VALID,916.817,VALID,0,VALID,100,VALID,-0.0679233,VALID,18.7604,VALID,215,VALID,0,
2000-07-29, 02:46:00,VALID,916.811,VALID,0,VALID,99.999,VALID,-0.0509425,VALID,18.7505,VALID,211,VALID,0,
2000-07-29, 02:47:00,VALID,916.795,VALID,0,VALID,100,VALID,0,VALID,18.7534,VALID,199,VALID,0,
2000-07-29, 02:48:00,VALID,916.778,VALID,0,VALID,100,VALID,-0.0339617,VALID,18.7405,VALID,155,VALID,0,
2000-07-29, 02:49:00,VALID,916.763,VALID,0,VALID,99.999,VALID,-0.0169808,VALID,18.7179,VALID,147,VALID,0,
2000-07-29, 02:50:00,VALID,916.763,VALID,0,VALID,99.999,VALID,-0.0339617,VALID,18.6923,VALID,140,VALID,0,
2000-07-29, 02:51:00,VALID,916.764,VALID,0,VALID,100,VALID,-0.0509425,VALID,18.6988,VALID,149,VALID,0,
2000-07-29, 02:52:00,VALID,916.759,VALID,0,VALID,100,VALID,-0.0849042,VALID,18.6859,VALID,135,VALID,0,
2000-07-29, 02:53:00,VALID,916.755,VALID,0,VALID,100,VALID,-0.0679233,VALID,18.6866,VALID,153,VALID,0.759924,
2000-07-29, 02:54:00,VALID,916.758,VALID,0,VALID,100,VALID,-0.101885,VALID,18.6697,VALID,163,VALID,0.773232,
2000-07-29, 02:55:00,VALID,916.746,VALID,0,VALID,100,VALID,-0.0679233,VALID,18.6665,VALID,174,VALID,0.714227,
2000-07-29, 02:56:00,VALID,916.743,VALID,0,VALID,100,VALID,-0.0679233,VALID,18.6503,VALID,175,VALID,0.876339,
2000-07-29, 02:57:00,VALID,916.73,VALID,0,VALID,100,VALID,-0.0509425,VALID,18.6734,VALID,184,VALID,0.77576,
2000-07-29, 02:58:00,VALID,916.737,VALID,0,VALID,100,VALID,0,VALID,18.6635,VALID,189,VALID,1.28424,
2000-07-29, 02:59:00,VALID,916.732,VALID,0,VALID,100,VALID,-0.0169808,VALID,18.6766,VALID,196,VALID,1.50232,
2000-07-29, 03:00:00,VALID,916.726,VALID,0,VALID,100,VALID,-0.0679233,VALID,18.6734,VALID,192,VALID,1.47266,
2000-07-29, 03:01:00,VALID,916.729,VALID,0,VALID,100,VALID,-0.0169808,VALID,18.6667,VALID,179,VALID,0.95653,
2000-07-29, 03:02:00,VALID,916.719,VALID,0,VALID,100,VALID,-0.0339617,VALID,18.6732,VALID,168,VALID,0.862946,
2000-07-29, 03:03:00,VALID,916.722,VALID,0,VALID,100,VALID,-0.0169808,VALID,18.6603,VALID,178,VALID,0.670397,
2000-07-29, 03:04:00,VALID,916.7,VALID,0,VALID,100,VALID,-0.0509425,VALID,18.6697,VALID,154,VALID,0.527803,
2000-07-29, 03:05:00,VALID,916.686,VALID,0,VALID,100,VALID,-0.0339617,VALID,18.6801,VALID,168,VALID,0.942356,
2000-07-29, 03:06:00,VALID,916.672,VALID,0,VALID,100,VALID,-0.0509425,VALID,18.6833,VALID,197,VALID,0.564967,
2000-07-29, 03:07:00,VALID,916.675,VALID,0,VALID,100,VALID,-0.0169808,VALID,18.6859,VALID,205,VALID,0.790707,
2000-07-29, 03:08:00,VALID,916.665,VALID,0,VALID,100,VALID,-0.0339617,VALID,18.7055,VALID,180,VALID,0.988616,
2000-07-29, 03:09:00,VALID,916.659,VALID,0,VALID,100,VALID,-0.0509425,VALID,18.6988,VALID,177,VALID,0.747255,
2000-07-29, 03:10:00,VALID,916.652,VALID,0,VALID,100,VALID,-0.0509425,VALID,18.7149,VALID,184,VALID,1.12546,
2000-07-29, 03:11:00,VALID,916.64,VALID,0,VALID,100,VALID,0,VALID,18.7154,VALID,179,VALID,0.947213,
2000-07-29, 03:12:00,VALID,916.623,VALID,0,VALID,100,VALID,0,VALID,18.6985,VALID,178,VALID,0.904785,
2000-07-29, 03:13:00,VALID,916.6,VALID,0,VALID,100,VALID,-0.0339617,VALID,18.6988,VALID,198,VALID,1.08974,
2000-07-29, 03:14:00,VALID,916.565,VALID,0,VALID,100,VALID,-0.0509425,VALID,18.6988,VALID,189,VALID,1.18705,
2000-07-29, 03:15:00,VALID,916.538,VALID,0,VALID,100,VALID,-0.0339617,VALID,18.702,VALID,190,VALID,1.17969,
2000-07-29, 03:16:00,VALID,916.506,VALID,0,VALID,100,VALID,-0.0169808,VALID,18.6891,VALID,181,VALID,0.831342,
2000-07-29, 03:17:00,VALID,916.475,VALID,0,VALID,100,VALID,-0.0339617,VALID,18.6727,VALID,198,VALID,0.789696,
2000-07-29, 03:18:00,VALID,916.448,VALID,0,VALID,100,VALID,-0.0169808,VALID,18.663,VALID,188,VALID,0.820518,
2000-07-29, 03:19:00,VALID,916.425,VALID,0,VALID,100,VALID,-0.0339617,VALID,18.6702,VALID,188,VALID,0.135896,
2000-07-29, 03:20:00,VALID,916.404,VALID,0,VALID,100,VALID,-0.0169808,VALID,18.6695,VALID,177,VALID,0,
2000-07-29, 03:21:00,VALID,916.384,VALID,0,VALID,100,VALID,-0.0339617,VALID,18.6603,VALID,165,VALID,0.657306,
2000-07-29, 03:22:00,VALID,916.391,VALID,0,VALID,100,VALID,-0.0509425,VALID,18.6605,VALID,187,VALID,0.695313,
2000-07-29, 03:23:00,VALID,916.397,VALID,0,VALID,100,VALID,-0.0169808,VALID,18.654,VALID,207,VALID,0.644003,
2000-07-29, 03:24:00,VALID,916.405,VALID,0,VALID,100,VALID,-0.0509425,VALID,18.661,VALID,204,VALID,0.875732,
2000-07-29, 03:25:00,VALID,916.425,VALID,0,VALID,100,VALID,-0.0339617,VALID,18.6342,VALID,189,VALID,0.948317,
2000-07-29, 03:26:00,VALID,916.425,VALID,0,VALID,100,VALID,-0.0339617,VALID,18.6245,VALID,181,VALID,0.992188,
2000-07-29, 03:27:00,VALID,916.44,VALID,0,VALID,100,VALID,-0.0679233,VALID,18.6284,VALID,182,VALID,1.00422,
2000-07-29, 03:28:00,VALID,916.452,VALID,0,VALID,100,VALID,-0.0339617,VALID,18.6312,VALID,187,VALID,0.889017,
2000-07-29, 03:29:00,VALID,916.462,VALID,0,VALID,100,VALID,-0.0339617,VALID,18.6247,VALID,195,VALID,0.730152,
2000-07-29, 03:30:00,VALID,916.465,VALID,0,VALID,100,VALID,-0.0169808,VALID,18.6183,VALID,189,VALID,0.712582,
2000-07-29, 03:31:00,VALID,916.472,VALID,0,VALID,100,VALID,0,VALID,18.6051,VALID,181,VALID,0.681743,
2000-07-29, 03:32:00,VALID,916.462,VALID,0,VALID,100,VALID,-0.0339617,VALID,18.6086,VALID,180,VALID,0.391295,
2000-07-29, 03:33:00,VALID,916.456,VALID,0,VALID,100,VALID,-0.0509425,VALID,18.6155,VALID,179,VALID,0.476774,
2000-07-29, 03:34:00,VALID,916.467,VALID,0,VALID,100,VALID,-0.0169808,VALID,18.5989,VALID,174,VALID,0.430836,
2000-07-29, 03:35:00,VALID,916.465,VALID,0,VALID,100,VALID,-0.0169808,VALID,18.5989,VALID,195,VALID,0.445524,
2000-07-29, 03:36:00,VALID,916.48,VALID,0,VALID,100,VALID,0,VALID,18.6023,VALID,196,VALID,0.590576,
2000-07-29, 03:37:00,VALID,916.482,VALID,0,VALID,100,VALID,-0.0169808,VALID,18.5924,VALID,196,VALID,0.379808,
2000-07-29, 03:38:00,VALID,916.474,VALID,0,VALID,100,VALID,-0.0339617,VALID,18.6026,VALID,201,VALID,0.639732,
2000-07-29, 03:39:00,VALID,916.475,VALID,0,VALID,100,VALID,0,VALID,18.5825,VALID,211,VALID,0.607897,
2000-07-29, 03:40:00,VALID,916.473,VALID,0,VALID,100,VALID,-0.0509425,VALID,18.5696,VALID,205,VALID,0.639246,
2000-07-29, 03:41:00,VALID,916.48,VALID,0,VALID,100,VALID,-0.0679233,VALID,18.5765,VALID,197,VALID,0.865498,
2000-07-29, 03:42:00,VALID,916.481,VALID,0,VALID,100,VALID,0,VALID,18.5698,VALID,203,VALID,0.640831,
2000-07-29, 03:43:00,VALID,916.468,VALID,0,VALID,100,VALID,-0.0339617,VALID,18.5698,VALID,197,VALID,0.377878,